Time,TemperatureF,DewpointF,PressureIn,WindDirection,WindDirectionDegrees,WindSpeedMPH,WindSpeedGustMPH,Humidity,HourlyPrecipIn,Conditions,Clouds,dailyrainin,SoftwareType,DateUTC
2013-02-10 00:01:00,13.5,3.6,29.97,ENE,74,2.7,5.4,64,0.00,,---,0.00,VWS V12.07,2013-02-10 05:01:00,
2013-02-10 00:04:00,13.5,3.6,30.00,NNW,340,5.8,14.5,64,0.00,,---,0.00,VWS V12.07,2013-02-10 05:04:00,
2013-02-10 00:10:00,13.5,3.6,30.00,NNE,13,2.2,14.5,64,0.00,,---,0.00,VWS V12.07,2013-02-10 05:10:00,
2013-02-10 00:16:00,13.5,3.6,30.00,WSW,240,3.6,6.3,64,0.00,,---,0.00,VWS V12.07,2013-02-10 05:16:00,
2013-02-10 00:18:00,13.5,3.6,30.00,NE,46,2.7,6.3,64,0.00,,---,0.00,VWS V12.07,2013-02-10 05:18:00,
2013-02-10 00:25:00,13.3,3.4,30.00,West,263,0.0,6.7,64,0.00,,---,0.00,VWS V12.07,2013-02-10 05:25:00,
2013-02-10 00:32:00,13.3,3.4,30.00,WSW,258,4.0,5.4,64,0.00,,---,0.00,VWS V12.07,2013-02-10 05:32:00,
2013-02-10 00:38:00,13.3,3.4,30.00,NNE,30,0.0,8.7,64,0.00,,---,0.00,VWS V12.07,2013-02-10 05:38:00,
2013-02-10 00:44:00,13.3,3.4,30.00,WSW,250,0.0,2.2,64,0.00,,---,0.00,VWS V12.07,2013-02-10 05:44:00,
2013-02-10 00:50:00,13.1,3.2,30.00,WSW,250,4.0,7.2,64,0.00,,---,0.00,VWS V12.07,2013-02-10 05:50:00,
2013-02-10 00:57:00,13.3,3.4,30.00,West,263,6.3,11.0,64,0.00,,---,0.00,VWS V12.07,2013-02-10 05:57:00,
2013-02-10 01:03:00,13.3,3.4,30.00,WSW,251,4.0,9.2,64,0.00,,---,0.00,VWS V12.07,2013-02-10 06:03:00,
2013-02-10 01:09:00,13.3,3.4,30.00,West,271,3.6,11.0,64,0.00,,---,0.00,VWS V12.07,2013-02-10 06:09:00,
2013-02-10 01:16:00,13.3,3.4,30.00,WNW,286,6.3,8.3,64,0.00,,---,0.00,VWS V12.07,2013-02-10 06:16:00,
2013-02-10 01:22:00,13.5,3.6,30.00,NW,310,6.3,10.1,64,0.00,,---,0.00,VWS V12.07,2013-02-10 06:22:00,
2013-02-10 01:28:00,13.5,3.6,30.00,NNE,28,3.1,10.1,64,0.00,,---,0.00,VWS V12.07,2013-02-10 06:28:00,
2013-02-10 01:34:00,13.3,3.4,30.00,North,353,2.7,10.5,64,0.00,,---,0.00,VWS V12.07,2013-02-10 06:34:00,
2013-02-10 01:40:00,13.5,3.6,30.00,NNW,332,2.7,10.5,64,0.00,,---,0.00,VWS V12.07,2013-02-10 06:40:00,
2013-02-10 01:47:00,13.5,3.6,30.00,North,0,3.6,5.8,64,0.00,,---,0.00,VWS V12.07,2013-02-10 06:47:00,
2013-02-10 01:54:00,13.5,3.6,30.03,ESE,115,3.1,8.3,64,0.00,,---,0.00,VWS V12.07,2013-02-10 06:54:00,
2013-02-10 02:00:00,13.5,3.6,30.03,NNE,18,3.1,3.1,64,0.00,,---,0.00,VWS V12.07,2013-02-10 07:00:00,
2013-02-10 02:07:00,13.5,3.6,30.03,East,87,2.7,5.8,64,0.00,,---,0.00,VWS V12.07,2013-02-10 07:07:00,
2013-02-10 02:13:00,13.5,3.6,30.03,East,82,4.0,5.8,64,0.00,,---,0.00,VWS V12.07,2013-02-10 07:13:00,
2013-02-10 02:19:00,13.5,3.6,30.03,North,353,5.4,10.1,64,0.00,,---,0.00,VWS V12.07,2013-02-10 07:19:00,
2013-02-10 02:25:00,13.5,3.6,30.03,North,11,2.2,10.1,64,0.00,,---,0.00,VWS V12.07,2013-02-10 07:25:00,
2013-02-10 02:31:00,13.5,3.6,30.03,NW,315,3.6,4.0,64,0.00,,---,0.00,VWS V12.07,2013-02-10 07:31:00,
2013-02-10 02:37:00,13.5,3.6,30.03,ESE,113,0.0,5.8,64,0.00,,---,0.00,VWS V12.07,2013-02-10 07:37:00,
2013-02-10 02:43:00,13.5,3.6,30.03,WNW,297,3.6,5.8,64,0.00,,---,0.00,VWS V12.07,2013-02-10 07:43:00,
2013-02-10 02:49:00,13.5,3.6,30.03,West,259,3.6,5.8,64,0.00,,---,0.00,VWS V12.07,2013-02-10 07:49:00,
2013-02-10 02:55:00,13.3,3.4,30.03,NW,310,4.0,7.2,64,0.00,,---,0.00,VWS V12.07,2013-02-10 07:55:00,
2013-02-10 03:01:00,13.5,3.6,30.03,SW,226,4.0,5.4,64,0.00,,---,0.00,VWS V12.07,2013-02-10 08:01:00,
2013-02-10 03:07:00,13.5,3.6,30.03,NE,36,3.1,6.3,64,0.00,,---,0.00,VWS V12.07,2013-02-10 08:07:00,
2013-02-10 03:13:00,13.5,3.6,30.03,NE,55,4.0,8.1,64,0.00,,---,0.00,VWS V12.07,2013-02-10 08:13:00,
2013-02-10 03:19:00,13.5,3.6,30.03,SW,235,4.9,5.8,64,0.00,,---,0.00,VWS V12.07,2013-02-10 08:19:00,
2013-02-10 03:25:00,13.5,3.6,30.03,WNW,295,7.2,8.1,64,0.00,,---,0.00,VWS V12.07,2013-02-10 08:25:00,
2013-02-10 03:31:00,13.6,3.7,30.03,North,8,3.1,4.5,64,0.00,,---,0.00,VWS V12.07,2013-02-10 08:31:00,
2013-02-10 03:37:00,13.6,3.7,30.03,East,87,6.3,8.3,64,0.00,,---,0.00,VWS V12.07,2013-02-10 08:37:00,
2013-02-10 03:43:00,13.6,3.7,30.03,NNW,344,3.1,8.3,64,0.00,,---,0.00,VWS V12.07,2013-02-10 08:43:00,
2013-02-10 03:49:00,13.5,3.6,30.03,North,357,2.7,4.9,64,0.00,,---,0.00,VWS V12.07,2013-02-10 08:49:00,
2013-02-10 03:56:00,13.5,3.6,30.06,SE,137,4.0,8.1,64,0.00,,---,0.00,VWS V12.07,2013-02-10 08:56:00,
2013-02-10 04:01:00,13.5,3.6,30.06,East,97,3.1,5.8,64,0.00,,---,0.00,VWS V12.07,2013-02-10 09:01:00,
2013-02-10 04:07:00,13.5,3.6,30.06,NE,39,2.7,5.8,64,0.00,,---,0.00,VWS V12.07,2013-02-10 09:07:00,
2013-02-10 04:14:00,13.3,3.4,30.06,WSW,244,5.8,6.7,64,0.00,,---,0.00,VWS V12.07,2013-02-10 09:14:00,
2013-02-10 04:20:00,13.3,3.4,30.06,WNW,284,0.0,6.7,64,0.00,,---,0.00,VWS V12.07,2013-02-10 09:20:00,
2013-02-10 04:26:00,13.1,3.2,30.06,West,265,2.7,6.7,64,0.00,,---,0.00,VWS V12.07,2013-02-10 09:26:00,
2013-02-10 04:33:00,12.9,3.0,30.06,WNW,303,0.0,5.8,64,0.00,,---,0.00,VWS V12.07,2013-02-10 09:33:00,
2013-02-10 04:39:00,12.9,3.0,30.06,SW,228,0.0,5.8,64,0.00,,---,0.00,VWS V12.07,2013-02-10 09:39:00,
2013-02-10 04:45:00,12.7,2.9,30.06,NW,308,0.0,0.0,64,0.00,,---,0.00,VWS V12.07,2013-02-10 09:45:00,
2013-02-10 04:51:00,12.6,2.7,30.09,SW,214,0.0,2.7,64,0.00,,---,0.00,VWS V12.07,2013-02-10 09:51:00,
2013-02-10 04:57:00,12.6,2.7,30.09,SW,214,0.0,2.7,64,0.00,,---,0.00,VWS V12.07,2013-02-10 09:57:00,
2013-02-10 05:04:00,12.2,2.4,30.09,SW,214,0.0,0.0,64,0.00,,---,0.00,VWS V12.07,2013-02-10 10:04:00,
2013-02-10 05:10:00,12.2,2.4,30.09,SW,215,0.0,0.0,64,0.00,,---,0.00,VWS V12.07,2013-02-10 10:10:00,
2013-02-10 05:16:00,12.0,2.2,30.09,SW,215,0.0,0.0,64,0.00,,---,0.00,VWS V12.07,2013-02-10 10:16:00,
2013-02-10 05:24:00,11.7,1.9,30.09,SW,214,0.0,0.0,64,0.00,,---,0.00,VWS V12.07,2013-02-10 10:24:00,
2013-02-10 05:30:00,11.5,1.7,30.09,SW,215,0.0,0.0,64,0.00,,---,0.00,VWS V12.07,2013-02-10 10:30:00,
2013-02-10 05:36:00,11.3,1.5,30.09,SW,214,0.0,0.0,64,0.00,,---,0.00,VWS V12.07,2013-02-10 10:36:00,
2013-02-10 05:43:00,11.1,1.3,30.09,SW,215,0.0,0.0,64,0.00,,---,0.00,VWS V12.07,2013-02-10 10:43:00,
2013-02-10 05:48:00,10.9,1.2,30.09,SW,214,0.0,0.0,64,0.00,,---,0.00,VWS V12.07,2013-02-10 10:48:00,
2013-02-10 05:54:00,10.8,1.0,30.12,SW,215,0.0,0.0,64,0.00,,---,0.00,VWS V12.07,2013-02-10 10:54:00,
2013-02-10 06:00:00,10.6,0.8,30.12,SW,214,0.0,0.0,64,0.00,,---,0.00,VWS V12.07,2013-02-10 11:00:00,
2013-02-10 06:06:00,10.4,0.6,30.12,SW,214,0.0,0.0,64,0.00,,---,0.00,VWS V12.07,2013-02-10 11:06:00,
2013-02-10 06:13:00,10.2,0.5,30.12,SW,215,0.0,0.0,64,0.00,,---,0.00,VWS V12.07,2013-02-10 11:13:00,
2013-02-10 06:18:00,9.9,0.1,30.12,SW,214,0.0,0.0,64,0.00,,---,0.00,VWS V12.07,2013-02-10 11:18:00,
2013-02-10 06:24:00,9.7,0.0,30.12,SW,215,0.0,0.0,64,0.00,,---,0.00,VWS V12.07,2013-02-10 11:24:00,
2013-02-10 06:32:00,9.5,-0.2,30.12,SW,214,0.0,0.0,64,0.00,,---,0.00,VWS V12.07,2013-02-10 11:32:00,
2013-02-10 06:38:00,9.3,-0.4,30.12,SW,214,0.0,0.0,64,0.00,,---,0.00,VWS V12.07,2013-02-10 11:38:00,
2013-02-10 06:44:00,9.1,-0.6,30.12,SW,214,0.0,0.0,64,0.00,,---,0.00,VWS V12.07,2013-02-10 11:44:00,
2013-02-10 06:50:00,9.0,-0.7,30.12,SW,214,0.0,0.0,64,0.00,,---,0.00,VWS V12.07,2013-02-10 11:50:00,
2013-02-10 06:56:00,8.8,-0.9,30.12,SW,214,0.0,0.0,64,0.00,,---,0.00,VWS V12.07,2013-02-10 11:56:00,
2013-02-10 07:02:00,8.6,-1.1,30.12,SW,214,0.0,0.0,64,0.00,,---,0.00,VWS V12.07,2013-02-10 12:02:00,
2013-02-10 07:08:00,8.8,-0.9,30.15,SW,214,0.0,0.0,64,0.00,,---,0.00,VWS V12.07,2013-02-10 12:08:00,
2013-02-10 07:14:00,8.8,-0.9,30.15,SW,214,0.0,0.0,64,0.00,,---,0.00,VWS V12.07,2013-02-10 12:14:00,
2013-02-10 07:20:00,9.0,-0.7,30.15,SW,215,0.0,0.0,64,0.00,,---,0.00,VWS V12.07,2013-02-10 12:20:00,
2013-02-10 07:26:00,9.1,-0.6,30.15,SW,214,0.0,0.0,64,0.00,,---,0.00,VWS V12.07,2013-02-10 12:26:00,
2013-02-10 07:32:00,9.3,-0.4,30.15,SW,214,0.0,0.0,64,0.00,,---,0.00,VWS V12.07,2013-02-10 12:32:00,
2013-02-10 07:38:00,9.5,-0.2,30.15,SW,214,0.0,0.0,64,0.00,,---,0.00,VWS V12.07,2013-02-10 12:38:00,
2013-02-10 07:44:00,10.0,0.3,30.15,SW,215,0.0,0.0,64,0.00,,---,0.00,VWS V12.07,2013-02-10 12:44:00,
2013-02-10 07:50:00,10.4,0.6,30.18,WNW,295,0.0,3.6,64,0.00,,---,0.00,VWS V12.07,2013-02-10 12:50:00,
2013-02-10 07:56:00,10.9,1.2,30.18,NNW,342,0.0,3.6,64,0.00,,---,0.00,VWS V12.07,2013-02-10 12:56:00,
2013-02-10 08:02:00,11.3,1.5,30.18,NNW,327,0.0,3.1,64,0.00,,---,0.00,VWS V12.07,2013-02-10 13:02:00,
2013-02-10 08:09:00,12.0,2.2,30.18,North,350,0.0,4.0,64,0.00,,---,0.00,VWS V12.07,2013-02-10 13:09:00,
2013-02-10 08:16:00,12.6,2.7,30.18,North,357,0.0,2.7,64,0.00,,---,0.00,VWS V12.07,2013-02-10 13:16:00,
2013-02-10 08:23:00,13.3,3.4,30.18,NW,305,0.0,3.6,64,0.00,,---,0.00,VWS V12.07,2013-02-10 13:23:00,
2013-02-10 08:29:00,13.6,3.7,30.18,NW,305,0.0,0.0,64,0.00,,---,0.00,VWS V12.07,2013-02-10 13:29:00,
2013-02-10 08:35:00,13.8,3.9,30.18,NNW,328,3.6,5.8,64,0.00,,---,0.00,VWS V12.07,2013-02-10 13:35:00,
2013-02-10 08:41:00,14.4,1.9,30.18,SW,232,0.0,5.8,57,0.00,,---,0.00,VWS V12.07,2013-02-10 13:41:00,
2013-02-10 08:47:00,14.9,2.0,30.18,WSW,244,3.6,3.6,56,0.00,,---,0.00,VWS V12.07,2013-02-10 13:47:00,
2013-02-10 08:54:00,15.3,2.4,30.18,WSW,253,0.0,5.4,56,0.00,,---,0.00,VWS V12.07,2013-02-10 13:54:00,
2013-02-10 09:00:00,15.4,2.2,30.18,NNW,338,0.0,3.6,55,0.00,,---,0.00,VWS V12.07,2013-02-10 14:00:00,
2013-02-10 09:07:00,16.2,2.8,30.18,WNW,283,0.0,3.6,55,0.00,,---,0.00,VWS V12.07,2013-02-10 14:07:00,
2013-02-10 09:14:00,17.6,3.8,30.18,North,350,3.1,3.1,54,0.00,,---,0.00,VWS V12.07,2013-02-10 14:14:00,
2013-02-10 09:21:00,18.7,5.2,30.18,WNW,290,2.7,5.4,55,0.00,,---,0.00,VWS V12.07,2013-02-10 14:21:00,
2013-02-10 09:28:00,19.8,5.8,30.18,WNW,303,0.0,5.8,54,0.00,,---,0.00,VWS V12.07,2013-02-10 14:28:00,
2013-02-10 09:35:00,20.5,6.9,30.18,NW,320,5.4,5.8,55,0.00,,---,0.00,VWS V12.07,2013-02-10 14:35:00,
2013-02-10 09:43:00,21.2,6.8,30.18,East,83,0.0,5.8,53,0.00,,---,0.00,VWS V12.07,2013-02-10 14:43:00,
2013-02-10 09:50:00,21.9,7.8,30.21,NNE,17,0.0,5.4,54,0.00,,---,0.00,VWS V12.07,2013-02-10 14:50:00,
2013-02-10 09:56:00,22.1,6.8,30.21,WNW,287,0.0,7.6,51,0.00,,---,0.00,VWS V12.07,2013-02-10 14:56:00,
2013-02-10 10:04:00,22.8,7.4,30.21,SW,228,2.7,5.8,51,0.00,,---,0.00,VWS V12.07,2013-02-10 15:04:00,
2013-02-10 10:10:00,23.5,8.5,30.18,NNW,346,2.7,5.8,52,0.00,,---,0.00,VWS V12.07,2013-02-10 15:10:00,
2013-02-10 10:18:00,23.9,9.3,30.18,West,265,2.7,5.4,53,0.00,,---,0.00,VWS V12.07,2013-02-10 15:18:00,
2013-02-10 10:24:00,24.4,11.0,30.21,West,268,3.1,5.8,56,0.00,,---,0.00,VWS V12.07,2013-02-10 15:24:00,
2013-02-10 10:31:00,25.0,11.9,30.21,SSW,199,3.1,4.5,57,0.00,,---,0.00,VWS V12.07,2013-02-10 15:31:00,
2013-02-10 10:38:00,25.3,13.0,30.21,WSW,251,2.7,5.4,59,0.00,,---,0.00,VWS V12.07,2013-02-10 15:38:00,
2013-02-10 10:44:00,25.9,12.4,30.21,West,260,2.7,2.7,56,0.00,,---,0.00,VWS V12.07,2013-02-10 15:44:00,
2013-02-10 10:53:00,26.6,12.6,30.18,WSW,243,0.0,3.6,55,0.00,,---,0.00,VWS V12.07,2013-02-10 15:53:00,
2013-02-10 10:59:00,27.3,14.1,30.18,NNE,33,3.1,5.4,57,0.00,,---,0.00,VWS V12.07,2013-02-10 15:59:00,
2013-02-10 11:07:00,27.9,15.0,30.18,SSW,196,0.0,6.3,58,0.00,,---,0.00,VWS V12.07,2013-02-10 16:07:00,
2013-02-10 11:14:00,27.9,12.5,30.18,WSW,242,2.2,4.0,52,0.00,,---,0.00,VWS V12.07,2013-02-10 16:14:00,
2013-02-10 11:21:00,28.0,13.1,30.18,SW,219,5.8,5.8,53,0.00,,---,0.00,VWS V12.07,2013-02-10 16:21:00,
2013-02-10 11:29:00,28.4,15.1,30.18,SW,223,7.6,7.6,57,0.00,,---,0.00,VWS V12.07,2013-02-10 16:29:00,
2013-02-10 11:36:00,28.4,15.5,30.18,West,259,2.7,7.6,58,0.00,,---,0.00,VWS V12.07,2013-02-10 16:36:00,
2013-02-10 11:44:00,28.6,16.5,30.18,West,272,2.7,7.6,60,0.00,,---,0.00,VWS V12.07,2013-02-10 16:44:00,
2013-02-10 11:51:00,28.9,16.8,30.18,ENE,60,2.7,5.4,60,0.00,,---,0.00,VWS V12.07,2013-02-10 16:51:00,
2013-02-10 11:57:00,28.6,15.3,30.18,ENE,64,0.0,5.4,57,0.00,,---,0.00,VWS V12.07,2013-02-10 16:57:00,
2013-02-10 12:05:00,28.4,15.5,30.18,NNE,32,0.0,5.4,58,0.00,,---,0.00,VWS V12.07,2013-02-10 17:05:00,
2013-02-10 12:10:00,28.4,15.5,30.18,WNW,284,4.0,5.4,58,0.00,,---,0.00,VWS V12.07,2013-02-10 17:10:00,
2013-02-10 12:18:00,28.8,13.4,30.18,SW,216,3.1,5.8,52,0.00,,---,0.00,VWS V12.07,2013-02-10 17:18:00,
2013-02-10 12:24:00,29.1,15.0,30.18,NE,45,0.0,5.8,55,0.00,,---,0.00,VWS V12.07,2013-02-10 17:24:00,
2013-02-10 12:32:00,29.5,14.5,30.18,NNE,16,3.1,5.8,53,0.00,,---,0.00,VWS V12.07,2013-02-10 17:32:00,
2013-02-10 12:39:00,29.8,14.4,30.18,North,357,3.1,6.3,52,0.00,,---,0.00,VWS V12.07,2013-02-10 17:39:00,
2013-02-10 12:46:00,29.8,15.2,30.18,NE,50,2.2,3.1,54,0.00,,---,0.00,VWS V12.07,2013-02-10 17:46:00,
2013-02-10 12:51:00,30.0,16.6,30.18,NNW,343,0.0,4.9,57,0.00,,---,0.00,VWS V12.07,2013-02-10 17:51:00,
2013-02-10 12:59:00,30.0,15.4,30.18,East,83,2.7,4.9,54,0.00,,---,0.00,VWS V12.07,2013-02-10 17:59:00,
2013-02-10 13:07:00,30.4,15.3,30.15,NW,307,0.0,4.9,53,0.00,,---,0.00,VWS V12.07,2013-02-10 18:07:00,
2013-02-10 13:14:00,30.7,16.1,30.15,NNE,29,3.1,3.1,54,0.00,,---,0.00,VWS V12.07,2013-02-10 18:14:00,
2013-02-10 13:23:00,31.1,15.5,30.15,West,262,0.0,3.6,52,0.00,,---,0.00,VWS V12.07,2013-02-10 18:23:00,
2013-02-10 13:31:00,31.3,16.6,30.15,West,272,2.7,3.6,54,0.00,,---,0.00,VWS V12.07,2013-02-10 18:31:00,
2013-02-10 13:38:00,31.3,16.1,30.15,NW,304,3.6,5.8,53,0.00,,---,0.00,VWS V12.07,2013-02-10 18:38:00,
2013-02-10 13:46:00,32.0,17.2,30.15,NNE,20,2.7,3.6,54,0.00,,---,0.00,VWS V12.07,2013-02-10 18:46:00,
2013-02-10 13:55:00,32.2,17.4,30.15,SW,229,5.8,6.3,54,0.00,,---,0.00,VWS V12.07,2013-02-10 18:55:00,
2013-02-10 14:03:00,32.4,18.0,30.15,NNW,329,3.6,3.6,55,0.00,,---,0.00,VWS V12.07,2013-02-10 19:03:00,
2013-02-10 14:09:00,32.4,17.1,30.12,SW,219,4.9,5.8,53,0.04,,---,0.04,VWS V12.07,2013-02-10 19:09:00,
2013-02-10 14:17:00,32.7,17.9,30.12,NE,34,0.0,5.8,54,0.04,,---,0.04,VWS V12.07,2013-02-10 19:17:00,
2013-02-10 14:24:00,32.5,17.3,30.12,West,281,3.1,5.8,53,0.04,,---,0.04,VWS V12.07,2013-02-10 19:24:00,
2013-02-10 14:31:00,32.7,17.0,30.12,NNE,18,0.0,0.0,52,0.08,,---,0.08,VWS V12.07,2013-02-10 19:31:00,
2013-02-10 14:40:00,32.7,17.5,30.12,West,281,2.2,4.0,53,0.08,,---,0.08,VWS V12.07,2013-02-10 19:40:00,
2013-02-10 14:48:00,32.7,17.9,30.12,SW,214,0.0,0.0,54,0.08,,---,0.08,VWS V12.07,2013-02-10 19:48:00,
2013-02-10 14:55:00,32.9,17.7,30.15,West,276,0.0,4.0,53,0.08,,---,0.08,VWS V12.07,2013-02-10 19:55:00,
2013-02-10 15:03:00,33.1,16.9,30.15,SSW,211,3.1,4.0,51,0.08,,---,0.08,VWS V12.07,2013-02-10 20:03:00,
2013-02-10 15:11:00,33.1,16.9,30.15,WSW,253,3.6,4.9,51,0.08,,---,0.08,VWS V12.07,2013-02-10 20:11:00,
2013-02-10 15:18:00,33.1,16.5,30.15,SW,227,0.0,2.2,50,0.04,,---,0.08,VWS V12.07,2013-02-10 20:18:00,
2013-02-10 15:26:00,33.1,14.6,30.15,WSW,257,0.0,5.8,46,0.04,,---,0.08,VWS V12.07,2013-02-10 20:26:00,
2013-02-10 15:33:00,33.1,14.6,30.15,WSW,248,2.2,4.0,46,0.00,,---,0.08,VWS V12.07,2013-02-10 20:33:00,
2013-02-10 15:41:00,32.9,15.4,30.15,SW,229,2.2,4.9,48,0.00,,---,0.08,VWS V12.07,2013-02-10 20:41:00,
2013-02-10 15:48:00,32.9,15.4,30.15,WSW,237,0.0,5.4,48,0.00,,---,0.08,VWS V12.07,2013-02-10 20:48:00,
2013-02-10 15:55:00,32.7,16.1,30.15,WSW,238,0.0,5.8,50,0.00,,---,0.08,VWS V12.07,2013-02-10 20:55:00,
2013-02-10 16:04:00,32.7,16.1,30.15,WSW,250,2.2,4.0,50,0.00,,---,0.08,VWS V12.07,2013-02-10 21:04:00,
2013-02-10 16:12:00,32.5,16.0,30.18,WSW,245,0.0,5.4,50,0.00,,---,0.08,VWS V12.07,2013-02-10 21:12:00,
2013-02-10 16:20:00,32.4,16.3,30.15,WSW,245,0.0,0.0,51,0.00,,---,0.08,VWS V12.07,2013-02-10 21:20:00,
2013-02-10 16:26:00,32.2,14.2,30.15,West,260,2.2,4.9,47,0.00,,---,0.08,VWS V12.07,2013-02-10 21:26:00,
2013-02-10 16:34:00,32.2,13.7,30.15,SW,232,2.2,4.0,46,0.00,,---,0.08,VWS V12.07,2013-02-10 21:34:00,
2013-02-10 16:42:00,32.2,13.7,30.15,SW,224,0.0,4.0,46,0.00,,---,0.08,VWS V12.07,2013-02-10 21:42:00,
2013-02-10 16:49:00,32.2,14.2,30.15,SW,224,0.0,0.0,47,0.00,,---,0.08,VWS V12.07,2013-02-10 21:49:00,
2013-02-10 16:56:00,32.2,15.2,30.15,SW,224,0.0,0.0,49,0.00,,---,0.08,VWS V12.07,2013-02-10 21:56:00,
2013-02-10 17:04:00,31.6,15.1,30.15,SW,224,0.0,0.0,50,0.00,,---,0.08,VWS V12.07,2013-02-10 22:04:00,
2013-02-10 17:13:00,31.1,15.1,30.15,SW,224,0.0,0.0,51,0.00,,---,0.08,VWS V12.07,2013-02-10 22:13:00,
2013-02-10 17:21:00,30.7,15.2,30.15,SW,224,0.0,0.0,52,0.00,,---,0.08,VWS V12.07,2013-02-10 22:21:00,
2013-02-10 17:29:00,30.0,14.5,30.15,SW,224,0.0,0.0,52,0.00,,---,0.08,VWS V12.07,2013-02-10 22:29:00,
2013-02-10 17:36:00,29.3,14.3,30.15,SW,224,0.0,0.0,53,0.00,,---,0.08,VWS V12.07,2013-02-10 22:36:00,
2013-02-10 17:45:00,28.6,14.1,30.15,SW,224,0.0,0.0,54,0.00,,---,0.08,VWS V12.07,2013-02-10 22:45:00,
2013-02-10 17:52:00,28.0,14.0,30.15,SW,224,0.0,0.0,55,0.00,,---,0.08,VWS V12.07,2013-02-10 22:52:00,
2013-02-10 18:00:00,27.5,13.9,30.15,SW,224,0.0,0.0,56,0.00,,---,0.08,VWS V12.07,2013-02-10 23:00:00,
2013-02-10 18:08:00,27.0,13.8,30.15,SW,224,0.0,0.0,57,0.00,,---,0.08,VWS V12.07,2013-02-10 23:08:00,
2013-02-10 18:14:00,26.8,13.6,30.15,SW,224,0.0,0.0,57,0.00,,---,0.08,VWS V12.07,2013-02-10 23:14:00,
2013-02-10 18:21:00,26.6,14.2,30.15,SW,224,0.0,0.0,59,0.00,,---,0.08,VWS V12.07,2013-02-10 23:21:00,
2013-02-10 18:30:00,26.2,13.9,30.15,SW,224,0.0,0.0,59,0.00,,---,0.08,VWS V12.07,2013-02-10 23:30:00,
2013-02-10 18:37:00,26.1,14.1,30.15,SW,224,0.0,0.0,60,0.00,,---,0.08,VWS V12.07,2013-02-10 23:37:00,
2013-02-10 18:45:00,25.7,13.8,30.15,SW,224,0.0,0.0,60,0.00,,---,0.08,VWS V12.07,2013-02-10 23:45:00,
2013-02-10 18:51:00,25.3,13.4,30.18,SW,224,0.0,0.0,60,0.00,,---,0.08,VWS V12.07,2013-02-10 23:51:00,
2013-02-10 18:59:00,25.0,13.4,30.18,SW,224,0.0,0.0,61,0.00,,---,0.08,VWS V12.07,2013-02-10 23:59:00,
2013-02-10 19:07:00,25.0,13.8,30.18,SW,224,0.0,0.0,62,0.00,,---,0.08,VWS V12.07,2013-02-11 00:07:00,
2013-02-10 19:14:00,25.0,13.8,30.18,SW,224,0.0,0.0,62,0.00,,---,0.08,VWS V12.07,2013-02-11 00:14:00,
2013-02-10 19:22:00,24.6,13.8,30.18,SW,224,0.0,0.0,63,0.00,,---,0.08,VWS V12.07,2013-02-11 00:22:00,
2013-02-10 19:30:00,24.4,13.7,30.18,SW,224,0.0,0.0,63,0.00,,---,0.08,VWS V12.07,2013-02-11 00:30:00,
2013-02-10 19:38:00,24.4,14.0,30.18,SW,224,0.0,0.0,64,0.00,,---,0.08,VWS V12.07,2013-02-11 00:38:00,
2013-02-10 19:45:00,24.3,13.5,30.18,SW,224,0.0,0.0,63,0.00,,---,0.08,VWS V12.07,2013-02-11 00:45:00,
2013-02-10 19:53:00,24.3,13.5,30.15,SW,224,0.0,0.0,63,0.00,,---,0.08,VWS V12.07,2013-02-11 00:53:00,
2013-02-10 20:00:00,24.3,13.5,30.15,SW,223,0.0,0.0,63,0.00,,---,0.08,VWS V12.07,2013-02-11 01:00:00,
2013-02-10 20:07:00,24.3,13.5,30.18,SW,224,0.0,0.0,63,0.00,,---,0.08,VWS V12.07,2013-02-11 01:07:00,
2013-02-10 20:16:00,24.3,13.5,30.18,SW,224,0.0,0.0,63,0.00,,---,0.08,VWS V12.07,2013-02-11 01:16:00,
2013-02-10 20:22:00,23.4,12.3,30.18,SW,224,0.0,0.0,62,0.00,,---,0.08,VWS V12.07,2013-02-11 01:22:00,
2013-02-10 20:29:00,23.2,11.7,30.18,SW,224,0.0,0.0,61,0.00,,---,0.08,VWS V12.07,2013-02-11 01:29:00,
2013-02-10 20:35:00,22.8,11.4,30.15,SW,224,0.0,0.0,61,0.00,,---,0.08,VWS V12.07,2013-02-11 01:35:00,
2013-02-10 20:42:00,22.8,11.4,30.15,SW,224,0.0,0.0,61,0.00,,---,0.08,VWS V12.07,2013-02-11 01:42:00,
2013-02-10 20:49:00,22.8,11.4,30.15,SW,224,0.0,0.0,61,0.00,,---,0.08,VWS V12.07,2013-02-11 01:49:00,
2013-02-10 20:57:00,22.8,11.4,30.15,SW,224,0.0,0.0,61,0.00,,---,0.08,VWS V12.07,2013-02-11 01:57:00,
2013-02-10 21:05:00,22.8,11.4,30.18,SW,224,0.0,0.0,61,0.00,,---,0.08,VWS V12.07,2013-02-11 02:05:00,
2013-02-10 21:11:00,22.8,11.4,30.18,SW,224,0.0,0.0,61,0.00,,---,0.08,VWS V12.07,2013-02-11 02:11:00,
2013-02-10 21:18:00,22.8,11.4,30.18,SW,224,0.0,0.0,61,0.00,,---,0.08,VWS V12.07,2013-02-11 02:18:00,
2013-02-10 21:25:00,22.8,11.4,30.18,SW,224,0.0,0.0,61,0.00,,---,0.08,VWS V12.07,2013-02-11 02:25:00,
2013-02-10 21:34:00,22.8,11.4,30.18,SW,224,0.0,0.0,61,0.00,,---,0.08,VWS V12.07,2013-02-11 02:34:00,
2013-02-10 21:42:00,22.8,11.4,30.15,SW,223,0.0,0.0,61,0.00,,---,0.08,VWS V12.07,2013-02-11 02:42:00,
2013-02-10 21:48:00,22.8,11.4,30.15,SW,224,0.0,0.0,61,0.00,,---,0.08,VWS V12.07,2013-02-11 02:48:00,
2013-02-10 21:55:00,22.8,11.4,30.18,SW,224,0.0,0.0,61,0.00,,---,0.08,VWS V12.07,2013-02-11 02:55:00,
2013-02-10 22:04:00,22.8,11.4,30.18,SW,224,0.0,0.0,61,0.00,,---,0.08,VWS V12.07,2013-02-11 03:04:00,
2013-02-10 22:11:00,22.8,11.4,30.15,SW,224,0.0,0.0,61,0.00,,---,0.08,VWS V12.07,2013-02-11 03:11:00,
2013-02-10 22:18:00,22.8,11.4,30.15,SW,224,0.0,0.0,61,0.00,,---,0.08,VWS V12.07,2013-02-11 03:18:00,
2013-02-10 22:27:00,22.8,11.4,30.15,SW,224,0.0,0.0,61,0.00,,---,0.08,VWS V12.07,2013-02-11 03:27:00,
2013-02-10 22:34:00,20.8,7.6,30.15,SW,224,0.0,0.0,56,0.00,,---,0.08,VWS V12.07,2013-02-11 03:34:00,
2013-02-10 22:41:00,20.8,7.6,30.15,SW,224,0.0,0.0,56,0.00,,---,0.08,VWS V12.07,2013-02-11 03:41:00,
2013-02-10 22:48:00,20.7,7.5,30.15,SW,224,0.0,0.0,56,0.00,,---,0.08,VWS V12.07,2013-02-11 03:48:00,
2013-02-10 22:55:00,20.7,7.5,30.18,SW,224,0.0,0.0,56,0.00,,---,0.08,VWS V12.07,2013-02-11 03:55:00,
2013-02-10 23:03:00,20.7,7.5,30.18,SW,224,0.0,0.0,56,0.00,,---,0.08,VWS V12.07,2013-02-11 04:03:00,
2013-02-10 23:09:00,20.5,6.9,30.18,SW,224,0.0,0.0,55,0.00,,---,0.08,VWS V12.07,2013-02-11 04:09:00,
2013-02-10 23:16:00,20.3,6.7,30.18,SW,224,0.0,0.0,55,0.00,,---,0.08,VWS V12.07,2013-02-11 04:16:00,
2013-02-10 23:23:00,20.1,6.6,30.15,SW,224,0.0,0.0,55,0.00,,---,0.08,VWS V12.07,2013-02-11 04:23:00,
2013-02-10 23:30:00,19.9,6.4,30.15,SW,224,0.0,0.0,55,0.00,,---,0.08,VWS V12.07,2013-02-11 04:30:00,
2013-02-10 23:36:00,19.8,6.2,30.15,SW,224,0.0,0.0,55,0.00,,---,0.08,VWS V12.07,2013-02-11 04:36:00,
2013-02-10 23:42:00,19.8,6.2,30.15,SW,224,0.0,0.0,55,0.00,,---,0.08,VWS V12.07,2013-02-11 04:42:00,
2013-02-10 23:49:00,19.8,6.6,30.15,SW,224,0.0,0.0,56,0.00,,---,0.08,VWS V12.07,2013-02-11 04:49:00,
2013-02-10 23:55:00,19.8,6.2,30.15,SW,224,0.0,0.0,55,0.00,,---,0.08,VWS V12.07,2013-02-11 04:55:00,